{"data":{"norad_id":59635,"epoch":"2026-09-21T07:08:40.520544Z","epoch_age_seconds":99160,"freshness":"FRESH","line1":"1 59635U 24082E   26264.29769121 -.00001560  00000+0 -47195-4 0  9994","line2":"2 59635  43.0024 115.4635 0001004 264.5730  95.5007 15.27578283134721","mean_motion":15.27578283,"eccentricity":0.0001004,"inclination_deg":43.0024,"raan_deg":115.4635,"arg_perigee_deg":264.573,"mean_anomaly_deg":95.5007,"bstar":-4.7195e-5,"rev_number":13472,"period_min":94.266854669601,"perigee_km":482.36537375993,"apogee_km":483.74310096039,"semimajor_km":6861.1912373602,"source":"CELESTRAK","updated_at":"2026-09-22T09:00:49.017663Z"}}